Date,TemperatureHighF,TemperatureAvgF,TemperatureLowF,DewpointHighF,DewpointAvgF,DewpointLowF,HumidityHigh,HumidityAvg,HumidityLow,PressureMaxIn,PressureMinIn,WindSpeedMaxMPH,WindSpeedAvgMPH,GustSpeedMaxMPH,PrecipitationSumIn
2014-4-4,87.8,78.8,67.6,65.9,63.8,61.8,89,62,45,30.04,29.99,3,1,8,0.02
2014-4-5,87.8,73.7,62.7,69.9,63.4,57.5,99,74,39,30.08,29.98,3,1,5,0.02
2014-4-6,88.6,75.0,63.3,68.0,63.8,60.4,93,71,42,30.06,29.94,7,1,7,0.00
2014-4-7,69.7,68.2,67.3,65.8,64.8,64.2,94,89,83,29.97,29.90,4,2,5,0.00
2014-4-8,67.8,67.8,67.8,63.1,63.1,63.1,85,85,85,29.78,29.78,3,3,11,0.00
2014-4-9,74.8,65.1,57.3,54.7,53.4,52.3,86,67,46,30.19,30.05,3,1,8,0.01
2014-4-10,79.0,66.5,53.2,61.2,54.6,48.9,98,69,37,30.30,30.14,6,2,8,0.00
2014-4-11,69.6,61.4,58.3,57.5,56.8,56.0,92,85,77,30.28,30.24,6,0,7,0.00
2014-4-17,76.1,71.9,63.3,68.8,66.1,60.9,92,82,77,30.21,30.13,10,6,16,0.00
2014-4-18,80.4,71.1,66.8,72.2,67.9,65.8,97,90,69,30.15,29.93,8,4,15,0.05
2014-4-19,74.6,68.3,61.2,67.7,62.9,57.6,98,84,63,30.01,29.88,5,2,9,0.01
2014-4-20,73.5,65.6,60.7,63.2,60.6,57.8,97,85,67,30.10,29.97,3,1,8,0.01
2014-4-21,72.0,65.0,59.7,62.2,59.5,57.7,98,83,69,30.10,29.99,2,1,6,0.00
2014-4-22,82.5,68.2,55.9,67.1,60.7,55.6,99,80,51,30.01,29.86,3,1,7,0.02
2014-4-23,85.9,72.7,61.3,67.3,63.1,59.1,97,74,47,29.98,29.87,3,1,7,0.01
2014-4-24,88.1,73.6,61.8,70.4,65.2,60.9,98,78,44,30.05,29.92,4,1,8,0.01
2014-4-25,89.1,74.8,63.8,70.9,65.6,62.5,98,76,44,30.05,29.94,4,1,8,0.01
2014-4-26,91.9,77.4,65.7,71.8,66.7,61.5,99,73,39,30.04,29.95,4,1,8,0.02
2014-4-27,91.2,78.6,66.8,72.3,67.2,63.5,98,72,41,30.02,29.92,6,2,9,0.01
2014-4-28,93.4,79.9,69.2,71.5,67.5,63.7,92,69,40,29.99,29.87,8,2,10,0.00
2014-4-29,90.8,78.3,70.7,75.8,71.3,67.5,96,80,50,30.02,29.87,7,3,9,0.00
2014-4-30,91.4,76.6,69.9,76.4,71.1,66.5,98,85,53,30.07,29.96,6,2,9,0.79